Weather History for Valladolid Airport, Spain

Change the Weather History Date:

Wednesday, December 26, 2012

  Actual Average Record
Temperature  
Mean Temperature 35 °F -  
Max Temperature 42 °F - - ()
Min Temperature 28 °F - - ()
Degree Days  
Heating Degree Days 30    
Moisture  
Dew Point 34 °F    
Average Humidity 98    
Maximum Humidity 100    
Minimum Humidity 87    
Precipitation  
Precipitation 0.00 in - - ()
Sea Level Pressure  
Sea Level Pressure 30.34 in    
Wind  
Wind Speed 3 mph ()    
Max Wind Speed 9 mph    
Max Gust Speed -    
Visibility 5.0 miles    
Events Fog    
T = Trace of Precipitation, MM = Missing Value Source: Averaged Metar Reports

Daily Weather History Graph

Daily Weather History Graph

Search for Another Location

Airport:

Trip Planner

Search our weather history database for the weather conditions in past years. The results will help you decide how hot, cold, wet, or windy it might be!

Date:

Astronomy

Dec. 26, 2012 Rise Set
Actual Time 8:45 AM CET 5:55 PM CET
Civil Twilight 8:13 AM CET 6:26 PM CET
Nautical Twilight 7:38 AM CET 7:01 PM CET
Astronomical Twilight 7:04 AM CET 7:35 PM CET
Moon 4:37 PM CET (12/26) 6:56 AM CET (12/26)
Length of Visible Light 10h 12m
Length of Day
9h 09m
Waxing Gibbous, 97% of the Moon is Illuminated
Dec 26
Waxing Gibbous
Dec 28
Full
Jan 5
Last Quarter
Jan 11
New
Jan 19
First Quarter

Hourly Weather History & Observations

Time (CET) Temp. Windchill Dew Point Humidity Pressure Visibility Wind Dir Wind Speed Gust Speed Precip Events Conditions
6:00 AM 32.0 °F 27.5 °F 32.0 °F 100% 30.24 in - NNW 4.6 mph - N/A   Clear
6:30 AM 32.0 °F 27.5 °F 32.0 °F 100% 30.24 in - NW 4.6 mph - N/A   Clear
7:00 AM 32.0 °F - 32.0 °F 100% 30.24 in - NW 1.2 mph - N/A   Clear
7:30 AM 32.0 °F - 32.0 °F 100% 30.27 in - Calm Calm - N/A   Clear
8:00 AM 32.0 °F - 32.0 °F 100% 30.27 in - Variable 1.2 mph - N/A   Clear
8:30 AM 30.2 °F 26.7 °F 30.2 °F 100% 30.27 in - South 3.5 mph - N/A   Clear
9:00 AM 28.4 °F - 28.4 °F 100% 30.30 in - South 2.3 mph - N/A   Clear
9:30 AM 28.4 °F - 28.4 °F 100% 30.30 in - SW 2.3 mph - N/A   Clear
10:00 AM 30.2 °F - 30.2 °F 100% 30.33 in - SSW 1.2 mph - N/A   Clear
10:21 AM 32.0 °F - 32.0 °F 100% 30.33 in 5.6 mi Variable 1.2 mph - N/A Fog Patches of Fog
10:30 AM 32.0 °F - 32.0 °F 100% 30.33 in 2.5 mi Variable 1.2 mph - N/A Fog Patches of Fog
11:00 AM 33.8 °F - 33.8 °F 100% 30.36 in 5.0 mi Variable 1.2 mph - N/A Fog Unknown
11:30 AM 33.8 °F 30.8 °F 33.8 °F 100% 30.36 in 5.0 mi South 3.5 mph - N/A Fog Patches of Fog
12:30 PM 33.8 °F 30.8 °F 33.8 °F 100% 30.36 in 0.2 mi South 3.5 mph - N/A Fog Fog
1:00 PM 35.6 °F 32.8 °F 33.8 °F 93% 30.36 in 0.2 mi SW 3.5 mph - N/A Fog Fog
1:30 PM 37.4 °F 34.9 °F 37.4 °F 100% 30.36 in 6.2 mi WSW 3.5 mph - N/A Fog Mostly Cloudy
1:45 PM 37.4 °F 34.9 °F 37.4 °F 100% 30.36 in 6.2 mi WSW 3.5 mph - N/A   Mostly Cloudy
2:00 PM 39.2 °F 35.9 °F 39.2 °F 100% 30.36 in 6.2 mi WSW 4.6 mph - N/A   Mostly Cloudy
2:30 PM 41.0 °F 39.0 °F 39.2 °F 93% 30.36 in 6.2 mi WSW 3.5 mph - N/A   Mostly Cloudy
3:00 PM 42.8 °F 41.1 °F 39.2 °F 87% 30.33 in 6.2 mi SW 3.5 mph - N/A   Mostly Cloudy
3:30 PM 42.8 °F - 39.2 °F 87% 30.33 in 6.2 mi Variable 2.3 mph - N/A   Scattered Clouds
4:00 PM 41.0 °F 37.1 °F 39.2 °F 93% 30.33 in 6.2 mi South 5.8 mph - N/A   Scattered Clouds
4:30 PM 39.2 °F 35.0 °F 39.2 °F 100% 30.33 in 6.2 mi South 5.8 mph - N/A   Scattered Clouds
5:00 PM 41.0 °F 35.2 °F 39.2 °F 93% 30.33 in 6.2 mi South 9.2 mph - N/A   Partly Cloudy
5:30 PM 41.0 °F 38.0 °F 37.4 °F 87% 30.33 in 6.2 mi South 4.6 mph - N/A   Partly Cloudy
6:00 PM 39.2 °F 37.0 °F 37.4 °F 93% 30.33 in 6.2 mi South 3.5 mph - N/A   Partly Cloudy
6:30 PM 37.4 °F - 35.6 °F 93% 30.36 in - South 2.3 mph - N/A   Clear
7:00 PM 35.6 °F - 35.6 °F 100% 30.36 in 6.2 mi SSW 2.3 mph - N/A   Partly Cloudy
7:30 PM 35.6 °F 32.8 °F 35.6 °F 100% 30.36 in - SW 3.5 mph - N/A   Clear
8:00 PM 32.0 °F 26.4 °F 32.0 °F 100% 30.39 in - SW 5.8 mph - N/A   Clear
8:30 PM 33.8 °F 29.6 °F 33.8 °F 100% 30.39 in - SSW 4.6 mph - N/A   Clear
9:00 PM 33.8 °F - 33.8 °F 100% 30.39 in - SSW 2.3 mph - N/A   Clear
9:30 PM 33.8 °F - 33.8 °F 100% 30.39 in - SSW 2.3 mph - N/A   Clear
10:00 PM 32.0 °F - 32.0 °F 100% 30.39 in 5.0 mi South 2.3 mph - N/A   Unknown
10:30 PM 33.8 °F - 33.8 °F 100% 30.39 in 1.9 mi SSE 2.3 mph - N/A   Mist